Location: Lombard
(41.8800°N, 88.0080°W)
Time: 13:08:38
(UTC-05:00)

RS-44 - Visible Passes

Search period start: 17 May 2022 00:00
Search period end: 27 May 2022 00:00
Orbit: 1174 x 1511 km, 82.5° (Epoch: 16 May)

Date Brightness Start Highest point End Pass type
(mag) Time Alt. Az. Time Alt. Az. Time Alt. Az.
17 May ? 00:43:24 16° ESE 00:45:48 19° E 00:50:32 10° NE visible
17 May ? 02:35:59 45° SSW 02:38:20 72° W 02:45:38 10° N visible
17 May ? 04:30:47 10° W 04:33:19 12° WNW 04:35:52 10° NW visible
18 May ? 01:07:02 27° ESE 01:09:07 31° E 01:15:19 10° NNE visible
18 May ? 02:59:37 33° WSW 03:02:15 45° WNW 03:09:13 10° N visible
19 May ? 01:30:40 41° SE 01:32:35 51° E 01:39:35 10° NNE visible
19 May ? 03:23:16 21° WSW 03:26:21 28° WNW 03:32:32 10° N visible
20 May ? 00:01:42 10° E 00:04:09 12° ENE 00:06:51 10° NE visible
20 May ? 01:54:17 53° S 01:56:13 82° E 02:03:34 10° N visible
20 May ? 03:46:53 12° W 03:50:40 18° WNW 03:55:23 10° NNW visible
21 May ? 00:25:19 19° ESE 00:27:20 22° E 00:32:35 10° NE visible
21 May ? 02:17:54 46° SW 02:20:00 64° W 02:27:20 10° N visible
21 May ? 04:14:09 10° WNW 04:15:12 10° NW 04:16:18 10° NW visible
22 May ? 00:48:54 32° ESE 00:50:41 36° E 00:57:12 10° NNE visible
22 May ? 02:41:29 31° WSW 02:43:58 40° WNW 02:50:52 10° N visible
23 May ? 01:12:29 47° SE 01:14:11 58° E 01:21:24 10° NNE visible
23 May ? 03:05:04 19° WSW 03:08:08 25° WNW 03:14:06 10° NNW visible
23 May ? 23:43:28 13° E 23:45:39 15° ENE 23:49:21 10° NE visible
24 May ? 01:36:03 56° S 01:37:51 89° WNW 01:45:19 10° N visible
24 May ? 03:28:38 11° W 03:32:31 16° WNW 03:36:46 10° NNW visible
25 May ? 00:07:02 23° ESE 00:08:52 25° E 00:14:36 10° NNE visible
25 May ? 01:59:36 43° SW 02:01:41 57° WNW 02:09:02 10° N visible
26 May ? 00:30:35 36° ESE 00:32:15 41° E 00:39:05 10° NNE visible
26 May ? 02:23:09 28° WSW 02:25:43 36° WNW 02:32:31 10° N visible
